Other Public Products
Issued by NWS Grand Forks, ND

Home | Current Version | Previous Version | Graphics & Text | Print | Product List | Glossary On
Versions: 1 2 3 4 5 6 7 8 9 10 11 12 13 14 15 16 17 18 19 20 21 22 23 24 25 26 27 28 29 30 31 32 33 34 35 36 37 38 39 40 41 42 43 44 45 46 47 48 49 50
000
FPUS83 KFGF 202231
OPUFGF
PRAIRIE TO PINES WEATHER ROUNDUP
NATIONAL WEATHER SERVICE EASTERN NORTH DAKOTA/GRAND FORKS ND
500 PM CDT MON APR 20 2015

 **SATELLITE DATA USED TO AUGMENT SKY COVER AT AUTOMATED STATIONS**
 *****  WEATHER ACROSS EASTERN NORTH DAKOTA  *****

CITY           SKY/WX    TMP DP  RH WIND       PRES   REMARKS
GRAND FORKS    CLOUDY    38  32  79 NW28G39   29.61R
GRAND FORKS AF PTSUNNY   37  32  81 N23G31    29.61S
GRAND CITY NWS   N/A     34 N/A N/A N26         N/A  WCI  21
BUXTON           N/A     37  36  96 CALM        N/A
DEVILS LAKE    CLOUDY    39  27  60 NW29G36   29.66S
FARGO          FLURRIES  37  34  89 N28G33    29.61R
WAHPETON ARPT  CLOUDY    37  32  81 NW21G31   29.61S
$$

 *****  WEATHER ACROSS CENTRAL AND WESTERN NORTH DAKOTA  *****

CITY           SKY/WX    TMP DP  RH WIND       PRES   REMARKS
JAMESTOWN      CLOUDY    43  24  47 NW30G39   29.66R
BISMARCK       SUNNY     52   2  13 NW35G45   29.75S
MINOT          SUNNY     51   6  16 NW29G38   29.74F
MINOT AFB      SUNNY     51   8  18 N26G36    29.73F
GARRISON         N/A     53   8  16 N31G43    29.74F
WILLISTON      MOSUNNY   53  14  21 N22G29    29.84F
DICKINSON      CLOUDY    49  13  23 NW23G33   29.80S
HETTINGER      CLOUDY    50  13  22 NW22G35   29.82S
$$

 *****  OTHER OBSERVATIONS NORTHEAST NORTH DAKOTA  *****

CITY           SKY/WX    TMP DP  RH WIND       PRES   REMARKS
WALHALLA       CLOUDY    37  32  81 NW28G35   29.63S
LANGDON          N/A     37  28  70 NW29G37   29.63S
CAVALIER       LGT RAIN  36  32  87 N25G31    29.62S
GRAFTON        DRIZZLE   36  36 100 NW17G29   29.62S
CANDO          CLOUDY    43  25  49 N31G44    29.68S
FORT TOTTEN    NOT AVBL
ROLLA          CLOUDY    39  27  60 N26G32    29.69S
RUGBY          NOT AVBL
 ***** THE ABOVE OBSERVATIONS ARE NON NWS ARE NOT QUALITY
        CONTROLLED AND MAY MIS-REPORT RAIN FOR SNOW...
$$

 *****  OTHER OBSERVATIONS SOUTHEAST NORTH DAKOTA *****

CITY           SKY/WX    TMP DP  RH WIND       PRES   REMARKS
COOPERSTOWN    NOT AVBL
VALLEY CITY    CLOUDY    39  28  65 N23G37    29.65R
OAKES            N/A     43  25  49 NW30G39   29.66R
GWINNER        CLOUDY    43  28  56 NW25G36   29.66R
SHEYENNE NWR     N/A     41  31  67 NW17      29.95
BUFFALO        NOT AVBL
WYNDMERE         N/A     43  34  70 NW21        N/A
 ***** THE ABOVE OBSERVATIONS ARE NON NWS ARE NOT QUALITY
       CONTROLLED AND MAY MIS-REPORT RAIN FOR SNOW...
$$

  *****  WEATHER ACROSS NORTHERN MINNESOTA  *****

CITY           SKY/WX    TMP DP  RH WIND       PRES   REMARKS
FLAG ISLAND    LGT SNOW  34  32  93 NW25      29.42R WCI  21
WARROAD        CLOUDY    36  28  75 NW22G29   29.47R
ROSEAU         CLOUDY    36  28  75 NW25      29.48R
HALLOCK        DRIZZLE   36  30  80 NW20G36   29.58R
THF RVR FALLS  PTSUNNY   34  30  86 NW26G32   29.54R WCI  21
HALSTAD          N/A     37  34  89 NW23        N/A
FOSSTON        LGT SNOW  32  28  86 NW21G32   29.53R WCI  20
BAUDETTE       CLOUDY    36  30  79 NW21G32   29.40R
WASKISH        CLOUDY    36  32  87 W16G24    29.42S
CROOKSTON      LGT SNOW  34  34 100 NW25      29.59R WCI  21
$$
  *****  WEATHER ACROSS CENTRAL AND WEST MINNESOTA  *****

CITY           SKY/WX    TMP DP  RH WIND       PRES   REMARKS
BEMIDJI        LGT SNOW  33  30  90 NW21      29.46S WCI  21
PARK RAPIDS    LGT RAIN  43  28  55 NW23G31   29.48S
WADENA         LGT RAIN  36  28  75 NW20G28   29.52R
DETROIT LAKES  LGT RAIN  34  32  93 NW24G32   29.56R WCI  21
MOORHEAD       LGT RAIN  36  32  87 NW28G36   29.62R
FERGUS FALLS   CLOUDY    36  34  93 NW24G36   29.60S
ELBOW LAKE     LGT RAIN  34  33  95 NW23G35   29.59R WCI  22
MORRIS MN      DRIZZLE   39  34  81 NW30G38   29.59S
STAPLES        CLOUDY    36  28  75 W22       29.50S
WHEATON        LGT RAIN  39  30  70 NW18G31   29.64S
$$
  *****  WEATHER ELSEWHERE ACROSS MINNESOTA  *****

CITY           SKY/WX    TMP DP  RH WIND       PRES   REMARKS
DULUTH         CLOUDY    36  26  67 W18G31    29.36S
INTRNTL FALLS  LGT SNOW  34  31  88 W12       29.35S FOG
ELY            CLOUDY    32  27  80 W9G21     29.32R WCI  24
CLOQUET        FLURRIES  36  25  64 W17G24    29.39R
BRAINERD       CLOUDY    36  26  67 NW15G25   29.48R
HIBBING        MIX PCPN  32  26  78 NW14G21   29.38S WCI  22
ALEXANDRIA     FLURRIES  37  32  82 W22G28    29.55S
SAINT CLOUD    CLOUDY    41  26  55 W23G36    29.50F
MINNEAPOLIS    CLOUDY    41  25  53 W17G33    29.53R
$$

  *****  WEATHER ACROSS SOUTH DAKOTA  *****

CITY           SKY/WX    TMP DP  RH WIND       PRES   REMARKS
SIOUX FALLS    MOSUNNY   53  10  18 NW31G38   29.66F
BROOKINGS      MOSUNNY   46  27  46 NW26G39   29.67R
WATERTOWN      CLOUDY    45  26  47 NW24G32   29.64F
HURON          SUNNY     54   8  16 N31G40    29.69S
SISSETON         N/A     42  29  59 N25G38    29.62F
ABERDEEN       PTSUNNY   52  22  30 NW30G39   29.69S
MITCHELL       SUNNY     56   2  11 NW35G49   29.72S
PIERRE         SUNNY     56   3  11 NW32G44   29.76F
MOBRIDGE       SUNNY     55   0  10 NW30G43   29.72S
RAPID CITY     MOSUNNY   54  21  27 N29G38    29.83F
$$

  *****  SOME WEATHER IN NEARBY STATES *****

CITY           SKY/WX    TMP DP  RH WIND       PRES   REMARKS
GLASGOW MT     PTSUNNY   57  14  18 N17       29.86F
GREAT FALLS MT MOSUNNY   64  23  21 VRB6      29.86F
CHEYENNE WY    SUNNY     46  22  38 NW29G38   29.91F
SCOTTSBLUFF NE MOSUNNY   57  24  28 W21G29    29.87F
OMAHA NE       MOSUNNY   57  14  18 NW25G43   29.74S
DES MOINES IA  MOSUNNY   57  20  23 NW25G36   29.67S
DAVENPORT IA   CLOUDY    48  35  60 W23G30    29.63R
CHICAGO IL     CLOUDY    46  34  62 W21G30    29.52R
EAU CLAIRE WI  CLOUDY    41  27  57 W12G24    29.46R
LA CROSSE WI   CLOUDY    46  29  51 W17G26    29.51S
$$

  *****  SOME NATIONAL WEATHER *****

CITY           SKY/WX    TMP DP  RH WIND       PRES   REMARKS
LA GUARDIA NY  FOG       50  49  96 NE9       29.68R VSB 1/4
RALEIGH NC     CLOUDY    72  62  71 SW12      29.65S
ATLANTA GA     PTSUNNY   74  54  49 SW17G23   29.70R
NEW ORLEANS LA PTSUNNY   76  54  46 NW13      29.85R
OKLAHOMA CITY  MOSUNNY   65  32  29 N10       29.96F
ALBUQUERQUE NM PTSUNNY   68  24  19 W9        29.91F
SALT LAKE CITY MOSUNNY   69  22  16 NW12      29.89F
LOS ANGELES CA MOSUNNY   62  50  64 W16       29.88F
BOISE ID       SUNNY     72  27  18 W6        29.87F
SEATTLE WA     MOSUNNY   72  42  34 N6        29.90F
$$

*** WEATHER ACROSS MANITOBA...SASKATCHEWAN AND ONTARIO ***
                ***ONTARIO***

CITY           SKY/WX    TMP DP  RH WIND       PRES   REMARKS
GERALDTON      LGT RAIN  36  34  93 N8        29.08F FOG
THUNDER BAY    CLOUDY    39  36  87 W13       29.19R
SIOUX LOOKOUT  LGT SNOW  34  34 100 N7        29.26R
TORONTO        PTSUNNY   61  55  82 S9        29.36S
BIG TROUT LK   LGT SNOW  30  28  93 NE15G33   29.50S WCI  19
PICKLE LAKE    LGT SNOW  32  30  93 NE9G21    29.26S VSB 1   WCI  24
DRYDEN         LGT RAIN  36  34  93 N8        29.28S
KENORA         LGT SNOW  34  32  93 NW13G20   29.37R FOG     WCI  25
$$
                *** MANITOBA***

CITY           SKY/WX    TMP DP  RH WIND       PRES   REMARKS
BRANDON        PTSUNNY   45  25  45 N33G41    29.72S
DAUPHIN        CLOUDY    39  28  65 N21G28    29.77S
ISLAND LAKE    LGT SNOW  32  30  93 NE14G29   29.66R WCI  22
PILOT MOUND      N/A     36  28  75 N20G28      N/A
THE PAS        MOSUNNY   45  27  49 NE10G18   29.88S
THOMPSON       FLURRIES  36  28  75 N15G23    29.93R
WINNIPEG       LGT SNOW  34  28  80 N26G38    29.62R WCI  21
LYNN LAKE      SUNNY     45   9  23 E7        29.95S
CHURCHILL      PTSUNNY   27  23  86 NE12      30.11S WCI  16
GILLAM         LGT SNOW  30  25  80 NE20G28   29.94R WCI  18
$$
                ***SASKATCHEWAN***

CITY           SKY/WX    TMP DP  RH WIND       PRES   REMARKS
ESTEVAN        MOSUNNY   50   7  17 N20G32    29.81F
KINDERSLEY     MOSUNNY   63  23  22 NW17G24   29.77F
LLOYDMINSTER   MOSUNNY   61  23  23 N18       29.78F
PRINCE ALBERT  LGT RAIN  37  32  81 E17       29.89F
REGINA         PTSUNNY   52  18  25 N12G18    29.85F



USA.gov is the U.S. government's official web portal to all federal, state and local government web resources and services.